Simultaneous Nadir Overpasses (SNOs) Predictions

Prediction of SNOs between LANDSAT-8 and NOAA-19 Satellite Orbit:

Table of predicted SNOs for the next 14.0 days since TLE Epoch: 6/13/2014
Index Date (LANDSAT-8) Time (LANDSAT-8) Lat,Lon (LANDSAT-8) SZA (LANDSAT-8 ) Date (NOAA-19) Time (NOAA-19) Lat,Lon (NOAA-19) SZA (NOAA-19 ) Distance(km) Time Diff (sec)
1 06/15/2014 06:08:02 -72.19, -92.43 131.21 06/15/2014 06:06:50 -72.28, -93.21 131.11 28.11 72
2 06/15/2014 06:57:32 71.94, 74.76 48.54 06/15/2014 06:57:50 71.92, 74.74 48.52 2.79 18
3 06/17/2014 11:41:50 71.92, 3.66 48.45 06/17/2014 11:41:41 71.94, 3.76 48.46 3.71 9
4 06/17/2014 12:31:21 -71.75, 171.01 131.73 06/17/2014 12:32:33 -71.70, 171.48 131.79 17.61 72
5 06/19/2014 16:26:06 72.00, -67.27 48.48 06/19/2014 16:25:33 72.02, -67.34 48.50 3.25 33
6 06/19/2014 17:15:36 -71.89, 100.17 131.64 06/19/2014 17:16:28 -71.91, 100.15 131.62 2.22 52
7 06/21/2014 21:10:23 72.01,-138.32 48.48 06/21/2014 21:09:23 72.00,-138.24 48.48 2.84 60
8 06/21/2014 21:59:53 -71.90, 29.12 131.64 06/21/2014 22:00:19 -71.91, 29.19 131.62 3.28 26
9 06/24/2014 01:54:32 72.43, 151.37 48.92 06/24/2014 01:53:22 72.45, 149.93 48.96 48.52 70
10 06/24/2014 02:44:09 -71.95, -41.86 131.56 06/24/2014 02:44:11 -71.98, -41.86 131.53 3.18 2
11 06/26/2014 07:28:25 -71.98,-112.87 131.47 06/26/2014 07:28:02 -71.99,-112.83 131.46 1.52 23




NCC Satellite Simultaneous Nadir Overpasses (SNOs) Prediction Service
